Location: Newark
(44.6028°N, 124.0883°W)
Time: 23:17:06
(UTC+00:00)

Transit 2A - All Passes

Search period start: 14 October 2019 00:00
Search period end: 24 October 2019 00:00
Orbit: 600 x 959 km, 66.7° (Epoch: 14 October)

Date Brightness Start Highest point End Pass type
(mag) Time Alt. Az. Time Alt. Az. Time Alt. Az.
14 Oct - 03:35:28 10° SE 03:38:29 15° ESE 03:41:22 10° ENE night (unlit)
14 Oct - 05:15:34 10° SSW 05:21:09 83° WNW 05:26:11 10° NNE night (unlit)
14 Oct - 07:01:38 10° W 07:04:59 17° NW 07:08:09 10° N night (unlit)
14 Oct - 12:18:43 10° N 12:21:47 18° NE 12:24:48 10° E visible
14 Oct - 14:01:02 10° NW 14:05:24 66° WSW 14:09:42 10° SSE visible
15 Oct - 04:41:30 10° SSW 04:47:02 70° ESE 04:52:02 10° NE night (unlit)
15 Oct - 06:26:32 10° W 06:30:36 22° NW 06:34:25 10° N night (unlit)
15 Oct - 11:45:08 10° N 11:47:23 13° NE 11:49:34 10° ENE visible
15 Oct - 13:26:54 10° NNW 13:31:19 81° ENE 13:35:38 10° SE visible
15 Oct - 15:13:06 10° W 15:13:41 10° WSW 15:14:17 10° WSW daylight
16 Oct - 04:07:37 10° S 04:12:57 48° ESE 04:17:49 10° NE visible
16 Oct - 05:51:40 10° WSW 05:56:18 29° NW 06:00:35 10° NNE night (unlit)
16 Oct - 11:12:19 10° NNE 11:12:54 10° NNE 11:13:30 10° NE visible
16 Oct - 12:52:50 10° NNW 12:57:10 53° NE 13:01:24 10° SE visible
16 Oct - 14:37:06 10° WNW 14:39:49 16° WSW 14:42:32 10° SSW daylight
17 Oct - 03:34:00 10° S 03:38:56 33° ESE 03:43:28 10° NE visible
17 Oct - 05:16:59 10° WSW 05:22:03 39° NW 05:26:41 10° NNE visible
17 Oct - 12:18:51 10° NNW 12:22:58 36° NE 12:26:57 10° ESE visible
17 Oct - 14:02:19 10° NW 14:05:53 25° WSW 14:09:27 10° SSW visible
18 Oct - 03:00:39 10° SSE 03:04:56 23° ESE 03:08:56 10° ENE visible
18 Oct - 04:42:30 10° SW 04:47:51 54° NW 04:52:42 10° NNE visible
18 Oct - 06:30:05 10° WNW 06:32:01 12° NW 06:33:54 10° N night (unlit)
18 Oct - 11:44:57 10° NNW 11:48:41 26° NE 11:52:20 10° ESE visible
18 Oct - 13:27:52 10° NW 13:31:55 38° WSW 13:35:57 10° S visible
19 Oct - 02:27:46 10° SE 02:31:00 16° ESE 02:34:04 10° ENE visible
19 Oct - 04:08:12 10° SW 04:13:42 77° WNW 04:18:39 10° NNE visible
19 Oct - 05:54:31 10° WNW 05:57:35 16° NW 06:00:30 10° N visible
19 Oct - 11:11:10 10° N 11:14:21 19° NE 11:17:29 10° E visible
19 Oct - 12:53:35 10° NW 12:57:53 60° WSW 13:02:10 10° SSE visible
20 Oct - 01:56:16 10° ESE 01:57:06 10° ESE 01:57:55 10° E visible
20 Oct - 03:34:05 10° SSW 03:39:35 75° ESE 03:44:32 10° NE visible
20 Oct - 05:19:21 10° W 05:23:12 20° NW 05:26:49 10° N visible
20 Oct - 10:37:33 10° N 10:39:57 14° NE 10:42:20 10° ENE visible
20 Oct - 12:19:25 10° NNW 12:23:49 88° ENE 12:28:10 10° SSE visible
21 Oct - 03:00:11 10° SSW 03:05:30 52° ESE 03:10:20 10° NE visible
21 Oct - 04:44:25 10° WSW 04:48:52 27° NW 04:53:00 10° NNE visible
21 Oct - 10:04:25 10° NNE 10:05:30 11° NNE 10:06:35 10° NE night (unlit)
21 Oct - 11:45:20 10° NNW 11:49:41 58° NE 11:53:57 10° SE visible
21 Oct - 13:29:49 10° WNW 13:32:17 15° WSW 13:34:45 10° SW visible
22 Oct - 02:26:29 10° S 02:31:28 36° ESE 02:36:01 10° NE visible
22 Oct - 04:09:42 10° WSW 04:14:37 36° NW 04:19:07 10° NNE visible
22 Oct - 11:11:21 10° NNW 11:15:29 39° NE 11:19:34 10° ESE visible
22 Oct - 12:54:56 10° WNW 12:58:22 23° WSW 13:01:47 10° SSW visible
23 Oct - 01:53:05 10° SSE 01:57:28 25° ESE 02:01:32 10° ENE visible
23 Oct - 03:35:11 10° SW 03:40:24 50° NW 03:45:10 10° NNE visible
23 Oct - 05:23:11 10° NW 05:24:38 11° NNW 05:26:03 10° NNW visible
23 Oct - 10:37:26 10° NNW 10:41:14 27° NE 10:44:58 10° ESE night (unlit)
23 Oct - 12:20:26 10° NW 12:24:24 35° WSW 12:28:21 10° S visible
